User: anonymous   Login
Location: Unspecified
(0.0000°N, 0.0000°E)
Time: 22:10:31
(UTC+00:00)
Language:

IGS 5A - Orbit

View from above orbital plane
View from above orbital plane
View from above satellite
View from above satellite

Ground track
Ground track

The orbit data is extracted from the following two-line orbital elements,

1 36104U 09066A   17261.83568658 0.00000400  00000-0  38105-4 0    09
2 36104  97.7209 335.0178 0003000 240.6317 119.3682 14.93452517    04
Epoch (UTC): 18 September 2017 20:03:23
Eccentricity: 0.0003000
inclination: 97.7209°
perigee height: 585 km
apogee height: 589 km
right ascension of ascending node: 335.0178°
argument of perigee: 240.6317°
revolutions per day: 14.93452517
mean anomaly at epoch: 119.3682°
orbit number at epoch: 0

The dashed part of the orbit path shows where the satellite is in the earth's shadow,  

DLR